| time (UTC) | temp F | wind direction | speed MPH | gust MPH | rain 1hr in | rain 24hr in | rain mn in | humidity % | barometer mb |
| 20260502195601 | 58 | 135 | 0.0 | 0.0 | 0.00 | 0.00 | 0.00 | 56 | 1012.1 |
| 20260502195101 | 58 | 135 | 0.0 | 0.0 | 0.00 | 0.00 | 0.00 | 56 | 1012.1 |
| 20260502194601 | 58 | 135 | 0.0 | 0.0 | 0.00 | 0.00 | 0.00 | 56 | 1012.1 |
| 20260502194101 | 59 | 135 | 0.0 | 0.0 | 0.00 | 0.00 | 0.00 | 56 | 1012.0 |
| 20260502193601 | 59 | 135 | 0.0 | 0.0 | 0.00 | 0.00 | 0.00 | 55 | 1012.0 |
| 20260502193101 | 59 | 135 | 0.0 | 0.0 | 0.00 | 0.00 | 0.00 | 55 | 1012.1 |
| 20260502192601 | 59 | 135 | 0.0 | 0.0 | 0.00 | 0.00 | 0.00 | 54 | 1012.0 |
| 20260502192101 | 60 | 135 | 0.0 | 0.0 | 0.00 | 0.00 | 0.00 | 54 | 1012.0 |
| 20260502191601 | 60 | 135 | 0.0 | 0.0 | 0.00 | 0.00 | 0.00 | 54 | 1012.1 |
| 20260502191101 | 60 | 135 | 0.0 | 0.0 | 0.00 | 0.00 | 0.00 | 54 | 1012.0 |
| 20260502190601 | 60 | 135 | 0.0 | 0.0 | 0.00 | 0.00 | 0.00 | 54 | 1012.1 |
| 20260502190101 | 60 | 135 | 0.0 | 0.0 | 0.00 | 0.00 | 0.00 | 54 | 1012.1 |
| 20260502185601 | 61 | 135 | 0.0 | 0.0 | 0.00 | 0.00 | 0.00 | 55 | 1012.1 |
| 20260502185101 | 61 | 135 | 0.0 | 0.0 | 0.00 | 0.00 | 0.00 | 56 | 1012.1 |
| 20260502184601 | 61 | 135 | 0.0 | 3.0 | 0.00 | 0.00 | 0.00 | 55 | 1012.0 |
| 20260502184101 | 61 | 315 | 3.0 | 3.0 | 0.00 | 0.00 | 0.00 | 54 | 1012.1 |
| 20260502183601 | 62 | 315 | 0.0 | 1.0 | 0.00 | 0.00 | 0.00 | 52 | 1012.1 |
| 20260502183101 | 62 | 315 | 0.0 | 1.0 | 0.00 | 0.00 | 0.00 | 51 | 1012.0 |
| 20260502182601 | 62 | 247 | 0.0 | 1.0 | 0.00 | 0.00 | 0.00 | 49 | 1011.9 |
| 20260502182101 | 63 | 157 | 0.0 | 0.0 | 0.00 | 0.00 | 0.00 | 48 | 1011.9 |
| 20260502181601 | 63 | 157 | 0.0 | 1.0 | 0.00 | 0.00 | 0.00 | 47 | 1012.0 |
| 20260502181101 | 63 | 180 | 0.0 | 0.0 | 0.00 | 0.00 | 0.00 | 47 | 1012.0 |
| 20260502180601 | 64 | 180 | 0.0 | 0.0 | 0.00 | 0.00 | 0.00 | 47 | 1012.0 |
| 20260502164101 | 68 | 180 | 3.0 | 8.0 | 0.00 | 0.00 | 0.00 | 43 | 1012.3 |
| 20260502163601 | 68 | 180 | 4.0 | 5.0 | 0.00 | 0.00 | 0.00 | 43 | 1012.3 |
| 20260502163101 | 68 | 180 | 6.0 | 11.0 | 0.00 | 0.00 | 0.00 | 43 | 1012.4 |
| 20260502162601 | 68 | 180 | 2.0 | 5.0 | 0.00 | 0.00 | 0.00 | 43 | 1012.4 |
| 20260502162101 | 68 | 180 | 4.0 | 8.0 | 0.00 | 0.00 | 0.00 | 44 | 1012.5 |
| 20260502161601 | 69 | 157 | 0.0 | 4.0 | 0.00 | 0.00 | 0.00 | 45 | 1012.6 |
| 20260502161101 | 69 | 180 | 0.0 | 6.0 | 0.00 | 0.00 | 0.00 | 45 | 1012.6 |
| 20260502160601 | 69 | 180 | 6.0 | 8.0 | 0.00 | 0.00 | 0.00 | 45 | 1012.6 |
| 20260502152101 | 71 | 180 | 1.0 | 8.0 | 0.00 | 0.00 | 0.00 | 43 | 1012.9 |
| 20260502151602 | 72 | 180 | 1.0 | 11.0 | 0.00 | 0.00 | 0.00 | 42 | 1012.9 |
| 20260502151101 | 73 | 180 | 0.0 | 3.0 | 0.00 | 0.00 | 0.00 | 41 | 1013.1 |
| 20260502150601 | 74 | 180 | 0.0 | 11.0 | 0.00 | 0.00 | 0.00 | 39 | 1013.3 |
| 20260502130602 | 77 | 157 | 1.0 | 15.0 | 0.00 | 0.00 | 0.00 | 36 | 1014.6 |
| 20260502123602 | 79 | 202 | 5.0 | 7.0 | 0.00 | 0.00 | 0.00 | 31 | 1015.0 |
| 20260502123102 | 80 | 315 | 0.0 | 9.0 | 0.00 | 0.00 | 0.00 | 30 | 1015.0 |
| 20260502122602 | 80 | 180 | 2.0 | 11.0 | 0.00 | 0.00 | 0.00 | 30 | 1015.2 |
| 20260502122102 | 80 | 270 | 0.0 | 4.0 | 0.00 | 0.00 | 0.00 | 31 | 1015.1 |
| 20260502121602 | 79 | 270 | 0.0 | 7.0 | 0.00 | 0.00 | 0.00 | 32 | 1015.3 |
| 20260502121102 | 79 | 180 | 0.0 | 13.0 | 0.00 | 0.00 | 0.00 | 32 | 1015.3 |
| 20260502120602 | 79 | 157 | 7.0 | 10.0 | 0.00 | 0.00 | 0.00 | 32 | 1015.3 |
| 20260502115602 | 78 | 135 | 3.0 | 15.0 | 0.00 | 0.00 | 0.00 | 33 | 1015.6 |
| 20260502115102 | 77 | 157 | 6.0 | 7.0 | 0.00 | 0.00 | 0.00 | 35 | 1015.7 |
| 20260502114602 | 76 | 180 | 0.0 | 10.0 | 0.00 | 0.00 | 0.00 | 35 | 1015.7 |
| 20260502114102 | 75 | 157 | 10.0 | 14.0 | 0.00 | 0.00 | 0.00 | 36 | 1015.8 |
| 20260502113602 | 76 | 157 | 10.0 | 10.0 | 0.00 | 0.00 | 0.00 | 35 | 1015.8 |
| 20260502113102 | 75 | 180 | 4.0 | 9.0 | 0.00 | 0.00 | 0.00 | 36 | 1015.7 |
| 20260502112602 | 76 | 135 | 7.0 | 13.0 | 0.00 | 0.00 | 0.00 | 33 | 1015.9 |
| 20260502112102 | 76 | 157 | 2.0 | 14.0 | 0.00 | 0.00 | 0.00 | 35 | 1016.0 |
| 20260502111602 | 76 | 180 | 4.0 | 9.0 | 0.00 | 0.00 | 0.00 | 36 | 1016.0 |
| 20260502111102 | 75 | 157 | 1.0 | 13.0 | 0.00 | 0.00 | 0.00 | 37 | 1016.0 |
| 20260502110602 | 75 | 157 | 10.0 | 13.0 | 0.00 | 0.00 | 0.00 | 37 | 1016.1 |
| 20260502105602 | 73 | 180 | 9.0 | 9.0 | 0.00 | 0.00 | 0.00 | 38 | 1016.2 |
| 20260502105102 | 72 | 180 | 3.0 | 10.0 | 0.00 | 0.00 | 0.00 | 39 | 1016.1 |
| 20260502104602 | 72 | 180 | 7.0 | 11.0 | 0.00 | 0.00 | 0.00 | 38 | 1016.4 |
| 20260502104102 | 72 | 180 | 8.0 | 9.0 | 0.00 | 0.00 | 0.00 | 37 | 1016.3 |
| 20260502103602 | 73 | 135 | 6.0 | 11.0 | 0.00 | 0.00 | 0.00 | 37 | 1016.3 |
| 20260502103102 | 74 | 157 | 8.0 | 10.0 | 0.00 | 0.00 | 0.00 | 38 | 1016.4 |
| 20260502102602 | 72 | 180 | 0.0 | 7.0 | 0.00 | 0.00 | 0.00 | 40 | 1016.5 |
| 20260502102102 | 70 | 180 | 3.0 | 10.0 | 0.00 | 0.00 | 0.00 | 39 | 1016.4 |
| 20260502101602 | 71 | 157 | 5.0 | 11.0 | 0.00 | 0.00 | 0.00 | 38 | 1016.5 |
| 20260502101102 | 71 | 157 | 9.0 | 12.0 | 0.00 | 0.00 | 0.00 | 37 | 1016.3 |
| 20260502100602 | 72 | 247 | 0.0 | 11.0 | 0.00 | 0.00 | 0.00 | 37 | 1016.4 |
| 20260502091102 | 67 | 180 | 9.0 | 10.0 | 0.00 | 0.00 | 0.00 | 44 | 1016.8 |
| 20260502090602 | 66 | 157 | 3.0 | 10.0 | 0.00 | 0.00 | 0.00 | 45 | 1016.8 |
| 20260502071103 | 56 | 180 | 5.0 | 6.0 | 0.00 | 0.00 | 0.00 | 42 | 1017.1 |
| 20260502070603 | 57 | 180 | 3.0 | 6.0 | 0.00 | 0.00 | 0.00 | 42 | 1017.1 |
| 20260502065603 | 58 | 180 | 1.0 | 6.0 | 0.00 | 0.00 | 0.00 | 40 | 1017.0 |
| 20260502065103 | 58 | 180 | 1.0 | 4.0 | 0.00 | 0.00 | 0.00 | 40 | 1017.2 |
| 20260502064603 | 59 | 180 | 0.0 | 5.0 | 0.00 | 0.00 | 0.00 | 39 | 1017.1 |
| 20260502064103 | 59 | 180 | 1.0 | 5.0 | 0.00 | 0.00 | 0.00 | 38 | 1017.2 |
| 20260502063603 | 60 | 180 | 0.0 | 4.0 | 0.00 | 0.00 | 0.00 | 38 | 1017.0 |
| 20260502063103 | 60 | 180 | 0.0 | 3.0 | 0.00 | 0.00 | 0.00 | 39 | 1017.1 |
| 20260502062603 | 60 | 180 | 1.0 | 3.0 | 0.00 | 0.00 | 0.00 | 39 | 1017.0 |
| 20260502062103 | 59 | 180 | 2.0 | 2.0 | 0.00 | 0.00 | 0.00 | 40 | 1017.1 |
| 20260502061603 | 58 | 180 | 0.0 | 0.0 | 0.00 | 0.00 | 0.00 | 39 | 1017.2 |
| 20260502061103 | 59 | 180 | 0.0 | 1.0 | 0.00 | 0.00 | 0.00 | 38 | 1017.3 |
| 20260502060603 | 60 | 180 | 1.0 | 4.0 | 0.00 | 0.00 | 0.00 | 37 | 1017.4 |
| 20260502055603 | 61 | 180 | 0.0 | 5.0 | 0.00 | 0.00 | 0.00 | 37 | 1017.3 |
| 20260502055103 | 61 | 157 | 3.0 | 4.0 | 0.00 | 0.00 | 0.00 | 39 | 1017.5 |
| 20260502054603 | 59 | 180 | 0.0 | 1.0 | 0.00 | 0.00 | 0.00 | 40 | 1017.5 |
| 20260502054103 | 58 | 180 | 0.0 | 5.0 | 0.00 | 0.00 | 0.00 | 39 | 1017.5 |
| 20260502053603 | 57 | 180 | 0.0 | 2.0 | 0.00 | 0.00 | 0.00 | 40 | 1017.7 |
| 20260502053103 | 57 | 225 | 0.0 | 2.0 | 0.00 | 0.00 | 0.00 | 39 | 1017.8 |
| 20260502052603 | 58 | 180 | 0.0 | 7.0 | 0.00 | 0.00 | 0.00 | 36 | 1017.7 |
| 20260502052103 | 59 | 180 | 0.0 | 2.0 | 0.00 | 0.00 | 0.00 | 36 | 1017.7 |
| 20260502051603 | 59 | 180 | 0.0 | 3.0 | 0.00 | 0.00 | 0.00 | 35 | 1017.5 |
| 20260502051103 | 60 | 180 | 0.0 | 4.0 | 0.00 | 0.00 | 0.00 | 36 | 1017.3 |
| 20260502050603 | 59 | 180 | 4.0 | 5.0 | 0.00 | 0.00 | 0.00 | 38 | 1017.3 |
| 20260502045603 | 57 | 180 | 2.0 | 6.0 | 0.00 | 0.00 | 0.00 | 41 | 1017.1 |
| 20260502045103 | 55 | 180 | 2.0 | 2.0 | 0.00 | 0.00 | 0.00 | 43 | 1017.1 |
| 20260502044603 | 54 | 180 | 0.0 | 1.0 | 0.00 | 0.00 | 0.00 | 44 | 1017.1 |
| 20260502044103 | 52 | 180 | 0.0 | 0.0 | 0.00 | 0.00 | 0.00 | 44 | 1017.0 |
| 20260502043603 | 52 | 180 | 0.0 | 0.0 | 0.00 | 0.00 | 0.00 | 44 | 1017.1 |
| 20260502043103 | 51 | 180 | 0.0 | 2.0 | 0.00 | 0.00 | 0.00 | 44 | 1017.2 |
| 20260502042603 | 51 | 180 | 0.0 | 0.0 | 0.00 | 0.00 | 0.00 | 44 | 1017.0 |
| 20260502042103 | 51 | 180 | 0.0 | 0.0 | 0.00 | 0.00 | 0.00 | 44 | 1017.1 |
| 20260502041603 | 51 | 180 | 0.0 | 0.0 | 0.00 | 0.00 | 0.00 | 43 | 1016.9 |
| 20260502041103 | 51 | 180 | 0.0 | 2.0 | 0.00 | 0.00 | 0.00 | 44 | 1016.9 |
| 20260502040603 | 51 | 180 | 0.0 | 2.0 | 0.00 | 0.00 | 0.00 | 44 | 1017.1 |
| 20260502035603 | 50 | 180 | 1.0 | 2.0 | 0.00 | 0.00 | 0.00 | 44 | 1017.1 |
| 20260502035103 | 50 | 180 | 0.0 | 0.0 | 0.00 | 0.00 | 0.00 | 45 | 1017.0 |
| 20260502034603 | 50 | 180 | 0.0 | 2.0 | 0.00 | 0.00 | 0.00 | 44 | 1017.1 |
| 20260502034103 | 50 | 180 | 0.0 | 0.0 | 0.00 | 0.00 | 0.00 | 43 | 1017.1 |
| 20260502033603 | 51 | 180 | 0.0 | 0.0 | 0.00 | 0.00 | 0.00 | 43 | 1017.3 |
| 20260502033103 | 51 | 180 | 0.0 | 0.0 | 0.00 | 0.00 | 0.00 | 43 | 1017.4 |
| 20260502032603 | 51 | 180 | 0.0 | 0.0 | 0.00 | 0.00 | 0.00 | 42 | 1017.4 |
| 20260502032103 | 52 | 180 | 0.0 | 0.0 | 0.00 | 0.00 | 0.00 | 42 | 1017.7 |
| 20260502031603 | 52 | 180 | 0.0 | 0.0 | 0.00 | 0.00 | 0.00 | 42 | 1017.6 |
| 20260502031103 | 52 | 180 | 0.0 | 0.0 | 0.00 | 0.00 | 0.00 | 40 | 1017.7 |
| 20260502030603 | 52 | 180 | 0.0 | 0.0 | 0.00 | 0.00 | 0.00 | 40 | 1017.5 |
| 20260502025603 | 52 | 180 | 0.0 | 3.0 | 0.00 | 0.00 | 0.00 | 39 | 1017.3 |
| 20260502025103 | 52 | 180 | 1.0 | 4.0 | 0.00 | 0.00 | 0.00 | 39 | 1017.4 |
| 20260502024603 | 52 | 180 | 0.0 | 1.0 | 0.00 | 0.00 | 0.00 | 39 | 1017.3 |
| 20260502024103 | 53 | 180 | 0.0 | 1.0 | 0.00 | 0.00 | 0.00 | 39 | 1017.4 |
| 20260502023603 | 53 | 180 | 0.0 | 2.0 | 0.00 | 0.00 | 0.00 | 39 | 1017.5 |
| 20260502023103 | 53 | 180 | 0.0 | 4.0 | 0.00 | 0.00 | 0.00 | 38 | 1017.4 |
| 20260502022603 | 53 | 180 | 0.0 | 3.0 | 0.00 | 0.00 | 0.00 | 38 | 1017.5 |
| 20260502022103 | 53 | 180 | 2.0 | 6.0 | 0.00 | 0.00 | 0.00 | 38 | 1017.5 |
| 20260502021603 | 53 | 180 | 6.0 | 6.0 | 0.00 | 0.00 | 0.00 | 38 | 1017.6 |
| 20260502021103 | 53 | 180 | 5.0 | 6.0 | 0.00 | 0.00 | 0.00 | 38 | 1017.5 |
| 20260502020603 | 53 | 180 | 1.0 | 6.0 | 0.00 | 0.00 | 0.00 | 38 | 1017.6 |
| 20260502020103 | 53 | 180 | 1.0 | 4.0 | 0.00 | 0.00 | 0.00 | 38 | 1017.7 |
| 20260502015603 | 53 | 180 | 4.0 | 4.0 | 0.00 | 0.00 | 0.00 | 37 | 1017.7 |
| 20260502015103 | 53 | 180 | 0.0 | 5.0 | 0.00 | 0.00 | 0.00 | 37 | 1017.7 |
| 20260502014603 | 53 | 180 | 0.0 | 4.0 | 0.00 | 0.00 | 0.00 | 37 | 1017.6 |
| 20260502014103 | 54 | 180 | 0.0 | 5.0 | 0.00 | 0.00 | 0.00 | 37 | 1017.7 |
| 20260502013603 | 54 | 180 | 0.0 | 5.0 | 0.00 | 0.00 | 0.00 | 37 | 1017.8 |
| 20260502013103 | 54 | 180 | 2.0 | 5.0 | 0.00 | 0.00 | 0.00 | 37 | 1017.7 |
| 20260502012603 | 54 | 180 | 0.0 | 3.0 | 0.00 | 0.00 | 0.00 | 37 | 1017.7 |
| 20260502012103 | 54 | 180 | 0.0 | 4.0 | 0.00 | 0.00 | 0.00 | 36 | 1017.7 |
| 20260502011603 | 54 | 180 | 1.0 | 4.0 | 0.00 | 0.00 | 0.00 | 35 | 1017.8 |
| 20260502011103 | 54 | 180 | 0.0 | 4.0 | 0.00 | 0.00 | 0.00 | 35 | 1017.7 |
| 20260502010603 | 54 | 180 | 4.0 | 5.0 | 0.00 | 0.00 | 0.00 | 35 | 1017.8 |
| 20260502010103 | 54 | 180 | 0.0 | 2.0 | 0.00 | 0.00 | 0.00 | 35 | 1018.0 |
| 20260502005603 | 54 | 180 | 2.0 | 3.0 | 0.00 | 0.00 | 0.00 | 34 | 1018.1 |
| 20260502005103 | 54 | 180 | 1.0 | 5.0 | 0.00 | 0.00 | 0.00 | 34 | 1018.1 |
| 20260502004603 | 55 | 180 | 0.0 | 4.0 | 0.00 | 0.00 | 0.00 | 34 | 1018.2 |
| 20260502004103 | 55 | 180 | 2.0 | 6.0 | 0.00 | 0.00 | 0.00 | 34 | 1018.1 |
| 20260502003603 | 55 | 180 | 4.0 | 6.0 | 0.00 | 0.00 | 0.00 | 34 | 1018.1 |
| 20260502003103 | 55 | 180 | 2.0 | 5.0 | 0.00 | 0.00 | 0.00 | 34 | 1018.1 |
| 20260502002603 | 56 | 180 | 0.0 | 6.0 | 0.00 | 0.00 | 0.00 | 33 | 1018.2 |
| 20260502002103 | 56 | 157 | 5.0 | 7.0 | 0.00 | 0.00 | 0.00 | 34 | 1018.1 |
| 20260502001603 | 56 | 157 | 6.0 | 7.0 | 0.00 | 0.00 | 0.00 | 34 | 1018.1 |
| 20260502001103 | 55 | 180 | 4.0 | 6.0 | 0.00 | 0.00 | 0.00 | 34 | 1018.1 |
| 20260502000603 | 55 | 180 | 5.0 | 6.0 | 0.00 | 0.00 | 0.00 | 34 | 1018.3 |
| 20260501235603 | 55 | 157 | 5.0 | 5.0 | 0.00 | 0.00 | 0.00 | 35 | 1018.3 |
| 20260501235103 | 55 | 180 | 3.0 | 5.0 | 0.00 | 0.00 | 0.00 | 35 | 1018.2 |
| 20260501234603 | 54 | 157 | 4.0 | 8.0 | 0.00 | 0.00 | 0.00 | 36 | 1018.3 |
| 20260501234103 | 53 | 180 | 3.0 | 6.0 | 0.00 | 0.00 | 0.00 | 37 | 1018.4 |
| 20260501233604 | 53 | 180 | 5.0 | 6.0 | 0.00 | 0.00 | 0.00 | 36 | 1018.5 |
| 20260501233104 | 53 | 180 | 0.0 | 1.0 | 0.00 | 0.00 | 0.00 | 37 | 1018.4 |
| 20260501232604 | 53 | 180 | 0.0 | 3.0 | 0.00 | 0.00 | 0.00 | 36 | 1018.6 |
| 20260501232104 | 53 | 180 | 0.0 | 0.0 | 0.00 | 0.00 | 0.00 | 36 | 1018.8 |
| 20260501231604 | 53 | 180 | 0.0 | 0.0 | 0.00 | 0.00 | 0.00 | 35 | 1018.6 |
| 20260501231104 | 53 | 180 | 0.0 | 3.0 | 0.00 | 0.00 | 0.00 | 35 | 1018.7 |
| 20260501230604 | 53 | 180 | 0.0 | 4.0 | 0.00 | 0.00 | 0.00 | 34 | 1018.7 |
| 20260501225604 | 54 | 180 | 0.0 | 2.0 | 0.00 | 0.00 | 0.00 | 34 | 1018.8 |
| 20260501225104 | 54 | 180 | 1.0 | 2.0 | 0.00 | 0.00 | 0.00 | 33 | 1018.9 |
| 20260501224604 | 54 | 180 | 1.0 | 3.0 | 0.00 | 0.00 | 0.00 | 33 | 1018.8 |
| 20260501224104 | 55 | 180 | 0.0 | 3.0 | 0.00 | 0.00 | 0.00 | 33 | 1018.9 |
| 20260501223604 | 55 | 180 | 0.0 | 1.0 | 0.00 | 0.00 | 0.00 | 32 | 1018.9 |
| 20260501223104 | 55 | 180 | 0.0 | 6.0 | 0.00 | 0.00 | 0.00 | 33 | 1019.0 |
| 20260501222604 | 55 | 180 | 5.0 | 6.0 | 0.00 | 0.00 | 0.00 | 33 | 1019.0 |
| 20260501222104 | 55 | 180 | 4.0 | 5.0 | 0.00 | 0.00 | 0.00 | 33 | 1019.1 |
| 20260501221604 | 55 | 180 | 2.0 | 2.0 | 0.00 | 0.00 | 0.00 | 32 | 1019.2 |
| 20260501221104 | 55 | 180 | 2.0 | 4.0 | 0.00 | 0.00 | 0.00 | 31 | 1019.1 |
| 20260501220604 | 56 | 180 | 0.0 | 1.0 | 0.00 | 0.00 | 0.00 | 31 | 1019.1 |
| 20260501220104 | 56 | 180 | 0.0 | 3.0 | 0.00 | 0.00 | 0.00 | 30 | 1019.1 |
| 20260501215604 | 57 | 180 | 0.0 | 6.0 | 0.00 | 0.00 | 0.00 | 30 | 1019.1 |
| 20260501215104 | 57 | 180 | 5.0 | 7.0 | 0.00 | 0.00 | 0.00 | 30 | 1019.0 |
| 20260501214604 | 57 | 180 | 6.0 | 6.0 | 0.00 | 0.00 | 0.00 | 30 | 1019.0 |
| 20260501214104 | 58 | 180 | 6.0 | 7.0 | 0.00 | 0.00 | 0.00 | 29 | 1019.0 |
| 20260501213604 | 58 | 180 | 7.0 | 8.0 | 0.00 | 0.00 | 0.00 | 29 | 1019.1 |
| 20260501213104 | 58 | 157 | 6.0 | 8.0 | 0.00 | 0.00 | 0.00 | 29 | 1019.3 |
| 20260501212604 | 58 | 180 | 6.0 | 9.0 | 0.00 | 0.00 | 0.00 | 29 | 1019.2 |
| 20260501212104 | 58 | 180 | 7.0 | 7.0 | 0.00 | 0.00 | 0.00 | 29 | 1019.1 |
| 20260501211604 | 58 | 135 | 5.0 | 7.0 | 0.00 | 0.00 | 0.00 | 28 | 1019.0 |
| 20260501211104 | 58 | 180 | 6.0 | 6.0 | 0.00 | 0.00 | 0.00 | 27 | 1019.2 |
| 20260501210604 | 58 | 157 | 4.0 | 6.0 | 0.00 | 0.00 | 0.00 | 27 | 1019.1 |
| 20260501210104 | 58 | 157 | 5.0 | 7.0 | 0.00 | 0.00 | 0.00 | 27 | 1019.0 |
| 20260501205604 | 58 | 157 | 4.0 | 7.0 | 0.00 | 0.00 | 0.00 | 27 | 1019.0 |
| 20260501205104 | 58 | 135 | 5.0 | 7.0 | 0.00 | 0.00 | 0.00 | 26 | 1019.0 |
| 20260501204604 | 58 | 157 | 6.0 | 6.0 | 0.00 | 0.00 | 0.00 | 25 | 1019.1 |
| 20260501204104 | 59 | 157 | 5.0 | 8.0 | 0.00 | 0.00 | 0.00 | 26 | 1019.1 |
| 20260501203604 | 59 | 157 | 5.0 | 8.0 | 0.00 | 0.00 | 0.00 | 26 | 1019.1 |
| 20260501203104 | 59 | 180 | 6.0 | 8.0 | 0.00 | 0.00 | 0.00 | 26 | 1019.0 |
| 20260501202604 | 59 | 157 | 7.0 | 8.0 | 0.00 | 0.00 | 0.00 | 26 | 1019.0 |
| 20260501202104 | 59 | 180 | 7.0 | 8.0 | 0.00 | 0.00 | 0.00 | 25 | 1019.1 |
| 20260501201604 | 59 | 180 | 7.0 | 8.0 | 0.00 | 0.00 | 0.00 | 25 | 1019.0 |
| 20260501201104 | 59 | 180 | 6.0 | 8.0 | 0.00 | 0.00 | 0.00 | 25 | 1018.9 |
| 20260501200604 | 59 | 180 | 8.0 | 9.0 | 0.00 | 0.00 | 0.00 | 25 | 1018.8 |
| 20260501200104 | 59 | 157 | 7.0 | 10.0 | 0.00 | 0.00 | 0.00 | 25 | 1019.0 |